DW4188 Weather Reports


time (UTC)temp
C
wind
direction
speed
KPH
gust
KPH
rain 1hr
cm
rain 24hr
cm
rain mn
cm
humidity
%
barometer
mb
20260509023604 21 0 0.0 0.0 0.00 0.00 0.00 55 1019.4
20260509022704 21 0 0.0 0.0 0.00 0.00 0.00 56 1019.4
20260509021804 21 0 0.0 0.0 0.00 0.00 0.00 55 1019.4
20260509020904 21 129 0.0 1.6 0.00 0.00 0.00 57 1019.6
20260509020004 20 0 0.0 0.0 0.00 0.00 0.00 59 1019.7
20260509015425 20 0 0.0 0.0 0.00 0.00 0.00 59 1019.7
20260509014503 20 0 0.0 0.0 0.00 0.00 0.00 59 1019.9
20260509013604 20 0 0.0 0.0 0.00 0.00 0.00 61 1019.8
20260509012704 20 0 0.0 0.0 0.00 0.00 0.00 59 1019.9
20260509011803 20 0 0.0 0.0 0.00 0.00 0.00 59 1020.1
20260509010904 20 0 0.0 0.0 0.00 0.00 0.00 59 1020.2
20260509010004 20 0 0.0 0.0 0.00 0.00 0.00 60 1020.2
20260509005424 20 0 0.0 0.0 0.00 0.00 0.00 58 1020.3
20260509004504 19 0 0.0 0.0 0.00 0.00 0.00 62 1020.2
20260509003604 19 0 0.0 0.0 0.00 0.00 0.00 62 1020.5
20260509002725 19 0 0.0 0.0 0.00 0.00 0.00 61 1020.4
20260509001804 19 0 0.0 0.0 0.00 0.00 0.00 62 1020.4
20260509000904 18 0 0.0 0.0 0.00 0.00 0.00 63 1020.6
20260509000004 18 0 0.0 0.0 0.00 0.00 0.00 65 1020.6
20260508235425 18 0 0.0 0.0 0.00 0.00 0.00 65 1020.4
20260508234524 17 0 0.0 0.0 0.00 0.00 0.00 67 1020.4
20260508233604 17 0 0.0 0.0 0.00 0.00 0.00 67 1020.3
20260508232704 17 0 0.0 0.0 0.00 0.00 0.00 70 1020.4
20260508231803 16 0 0.0 0.0 0.00 0.00 0.00 73 1020.5
20260508230904 16 0 0.0 0.0 0.00 0.00 0.00 74 1020.2
20260508230004 16 0 0.0 0.0 0.00 0.00 0.00 74 1020.2
20260508225404 15 0 0.0 0.0 0.00 0.00 0.00 75 1020.2
20260508224525 15 0 0.0 0.0 0.00 0.00 0.00 75 1020.1
20260508223604 15 0 0.0 0.0 0.00 0.00 0.00 75 1019.7
20260508222704 15 0 0.0 0.0 0.00 0.00 0.00 75 1019.9
20260508221803 14 0 0.0 0.0 0.00 0.00 0.00 75 1019.7
20260508220904 14 0 0.0 0.0 0.00 0.00 0.00 76 1019.7
20260508220004 14 0 0.0 0.0 0.00 0.00 0.00 76 1019.7
20260508215403 13 0 0.0 0.0 0.00 0.00 0.00 76 1019.7
20260508214504 13 0 0.0 0.0 0.00 0.00 0.00 76 1019.5
20260508213603 13 0 0.0 0.0 0.00 0.00 0.00 76 1019.2
20260508212703 13 0 0.0 0.0 0.00 0.00 0.00 76 1019.1
20260508211803 13 0 0.0 0.0 0.00 0.00 0.00 76 1019.2
20260508210903 13 0 0.0 0.0 0.00 0.00 0.00 76 1019.0
20260508210004 12 0 0.0 0.0 0.00 0.00 0.00 76 1019.0
20260508205425 12 0 0.0 0.0 0.00 0.00 0.00 76 1018.7
20260508204503 12 0 0.0 0.0 0.00 0.00 0.00 76 1018.6
20260508203604 12 0 0.0 0.0 0.00 0.00 0.00 76 1018.7
20260508202703 12 0 0.0 0.0 0.00 0.00 0.00 76 1018.5
20260508201804 12 0 0.0 0.0 0.00 0.00 0.00 76 1018.3
20260508200904 12 0 0.0 0.0 0.00 0.00 0.00 76 1018.4
20260508200004 12 0 0.0 0.0 0.00 0.00 0.00 76 1018.5
20260508195404 12 0 0.0 0.0 0.00 0.00 0.00 76 1018.2
20260508194504 12 0 0.0 0.0 0.00 0.00 0.00 75 1018.1
20260508193625 12 0 0.0 0.0 0.00 0.00 0.00 75 1018.0
20260508192704 12 0 0.0 0.0 0.00 0.00 0.00 75 1017.9
20260508191804 12 0 0.0 0.0 0.00 0.00 0.00 75 1017.6
20260508190904 12 0 0.0 0.0 0.00 0.00 0.00 74 1017.6
20260508190004 12 0 0.0 0.0 0.00 0.00 0.00 74 1017.7
20260508185404 12 0 0.0 0.0 0.00 0.00 0.00 74 1017.6
20260508184504 12 0 0.0 0.0 0.00 0.00 0.00 74 1017.5
20260508183604 12 0 0.0 0.0 0.00 0.00 0.00 74 1017.6
20260508182704 12 0 0.0 0.0 0.00 0.00 0.00 74 1017.5
20260508181804 12 0 0.0 0.0 0.00 0.00 0.00 74 1017.4
20260508180904 12 0 0.0 0.0 0.00 0.00 0.00 74 1017.3
20260508180004 12 0 0.0 0.0 0.00 0.00 0.00 74 1017.3
20260508175404 12 0 0.0 0.0 0.00 0.00 0.00 74 1017.3
20260508174504 12 0 0.0 0.0 0.00 0.00 0.00 74 1017.4
20260508173603 12 0 0.0 0.0 0.00 0.00 0.00 74 1017.6
20260508172704 12 0 0.0 0.0 0.00 0.00 0.00 74 1017.5
20260508171825 12 0 0.0 0.0 0.00 0.00 0.00 74 1017.4
20260508170904 12 0 0.0 0.0 0.00 0.00 0.00 74 1017.4
20260508170004 12 0 0.0 0.0 0.00 0.00 0.00 74 1017.0
20260508165404 12 0 0.0 0.0 0.00 0.00 0.00 74 1017.3
20260508164524 12 0 0.0 0.0 0.00 0.00 0.00 74 1017.1
20260508163604 12 0 0.0 0.0 0.00 0.00 0.00 73 1017.3
20260508162703 12 0 0.0 0.0 0.00 0.00 0.00 73 1017.2
20260508161804 12 0 0.0 0.0 0.00 0.00 0.00 73 1017.1
20260508160904 13 0 0.0 0.0 0.00 0.00 0.00 72 1017.1
20260508160004 13 0 0.0 0.0 0.00 0.00 0.00 72 1017.3
20260508155404 13 0 0.0 0.0 0.00 0.00 0.00 72 1017.4
20260508154525 13 0 0.0 0.0 0.00 0.00 0.00 72 1017.3
20260508153604 13 0 0.0 0.0 0.00 0.00 0.00 72 1017.3
20260508152704 13 0 0.0 0.0 0.00 0.00 0.00 71 1017.2
20260508151804 13 0 0.0 0.0 0.00 0.00 0.00 72 1017.1
20260508150904 13 0 0.0 0.0 0.00 0.00 0.00 71 1017.1
20260508150004 13 0 0.0 0.0 0.00 0.00 0.00 71 1017.0
20260508145404 13 0 0.0 0.0 0.00 0.00 0.00 71 1017.0
20260508144504 13 0 0.0 0.0 0.00 0.00 0.00 71 1017.1
20260508143603 13 0 0.0 0.0 0.00 0.00 0.00 71 1017.1
20260508142704 13 0 0.0 0.0 0.00 0.00 0.00 71 1017.2
20260508141825 13 0 0.0 0.0 0.00 0.00 0.00 72 1017.0
20260508140903 13 0 0.0 0.0 0.00 0.00 0.00 71 1016.9
20260508140006 13 0 0.0 0.0 0.00 0.00 0.00 71 1017.2
20260508135403 14 0 0.0 0.0 0.00 0.00 0.00 70 1016.8
20260508134504 14 0 0.0 0.0 0.00 0.00 0.00 71 1016.9
20260508133604 14 0 0.0 0.0 0.00 0.00 0.00 70 1016.9
20260508132704 14 0 0.0 0.0 0.00 0.00 0.00 70 1016.4
20260508131803 14 0 0.0 0.0 0.00 0.00 0.00 70 1016.7
20260508130924 14 0 0.0 0.0 0.00 0.00 0.00 70 1016.7
20260508130004 14 0 0.0 0.0 0.00 0.00 0.00 70 1016.6
20260508125404 14 0 0.0 0.0 0.00 0.00 0.00 69 1016.4
20260508124504 15 0 0.0 0.0 0.00 0.00 0.00 69 1016.6
20260508123604 15 0 0.0 0.0 0.00 0.00 0.00 70 1016.5
20260508122704 15 0 0.0 0.0 0.00 0.00 0.00 70 1016.7
20260508121804 15 0 0.0 0.0 0.00 0.00 0.00 70 1016.6
20260508120904 15 0 0.0 0.0 0.00 0.00 0.00 70 1016.6
20260508120004 15 0 0.0 0.0 0.00 0.00 0.00 70 1016.4
20260508115404 15 0 0.0 0.0 0.00 0.00 0.00 69 1016.7
20260508114503 15 0 0.0 0.0 0.00 0.00 0.00 69 1016.7
20260508113604 15 0 0.0 0.0 0.00 0.00 0.00 70 1016.9
20260508112704 15 0 0.0 0.0 0.00 0.00 0.00 70 1016.3
20260508111804 15 0 0.0 0.0 0.00 0.00 0.00 69 1016.4
20260508110904 15 0 0.0 0.0 0.00 0.00 0.00 70 1016.4
20260508110024 15 0 0.0 0.0 0.00 0.00 0.00 69 1016.2
20260508105404 15 0 0.0 0.0 0.00 0.00 0.00 68 1016.2
20260508104504 16 0 0.0 0.0 0.00 0.00 0.00 68 1016.1
20260508103625 16 0 0.0 0.0 0.00 0.00 0.00 67 1016.3
20260508102704 16 0 0.0 0.0 0.00 0.00 0.00 67 1016.3
20260508101803 16 0 0.0 0.0 0.00 0.00 0.00 67 1016.0
20260508100903 16 0 0.0 0.0 0.00 0.00 0.00 67 1016.2
20260508100004 16 0 0.0 0.0 0.00 0.00 0.00 66 1016.1
20260508095404 16 0 0.0 0.0 0.00 0.00 0.00 65 1015.9
20260508094504 16 0 0.0 0.0 0.00 0.00 0.00 65 1016.0
20260508093604 16 0 0.0 0.0 0.00 0.00 0.00 64 1015.9
20260508092704 16 0 0.0 0.0 0.00 0.00 0.00 64 1015.8
20260508091804 17 0 0.0 0.0 0.00 0.00 0.00 63 1015.8
20260508090904 17 0 0.0 0.0 0.00 0.00 0.00 63 1015.7
20260508090024 17 0 0.0 0.0 0.00 0.00 0.00 63 1015.7
20260508085403 17 0 0.0 0.0 0.00 0.00 0.00 62 1015.5
20260508084504 17 0 0.0 0.0 0.00 0.00 0.00 61 1015.4
20260508083604 17 0 0.0 0.0 0.00 0.00 0.00 61 1015.3
20260508082725 17 0 0.0 0.0 0.00 0.00 0.00 60 1015.0
20260508081804 18 0 0.0 0.0 0.00 0.00 0.00 59 1015.0
20260508080904 18 0 0.0 0.0 0.00 0.00 0.00 57 1014.7
20260508080004 18 0 0.0 0.0 0.00 0.00 0.00 56 1014.5
20260508075404 18 0 0.0 0.0 0.00 0.00 0.00 56 1014.6
20260508074504 18 0 0.0 0.0 0.00 0.00 0.00 55 1014.5
20260508073604 18 0 0.0 0.0 0.00 0.00 0.00 52 1014.7
20260508072726 19 0 0.0 0.0 0.00 0.00 0.00 51 1014.3
20260508071804 19 0 0.0 0.0 0.00 0.00 0.00 49 1014.2
20260508070904 19 0 0.0 0.0 0.00 0.00 0.00 48 1014.3
20260508070004 20 0 0.0 0.0 0.00 0.00 0.00 47 1014.3
20260508065404 20 0 0.0 0.0 0.00 0.00 0.00 47 1014.4
20260508064504 20 0 0.0 0.0 0.00 0.00 0.00 46 1014.0
20260508063604 20 0 0.0 0.0 0.00 0.00 0.00 45 1013.9
20260508062704 20 0 0.0 0.0 0.00 0.00 0.00 45 1013.8
20260508061825 20 0 0.0 0.0 0.00 0.00 0.00 44 1014.0
20260508060904 20 0 0.0 0.0 0.00 0.00 0.00 44 1013.9
20260508060004 20 0 0.0 0.0 0.00 0.00 0.00 43 1013.7
20260508055403 20 0 0.0 0.0 0.00 0.00 0.00 42 1013.9
20260508054504 20 0 0.0 0.0 0.00 0.00 0.00 41 1013.9
20260508053604 21 0 0.0 0.0 0.00 0.00 0.00 41 1013.9
20260508052704 21 0 0.0 0.0 0.00 0.00 0.00 40 1014.2
20260508051804 21 0 0.0 0.0 0.00 0.00 0.00 38 1013.9
20260508050904 21 0 0.0 0.0 0.00 0.00 0.00 33 1013.9
20260508050004 21 0 0.0 0.0 0.00 0.00 0.00 32 1014.1
20260508045404 21 0 0.0 0.0 0.00 0.00 0.00 31 1014.2
20260508044504 21 0 0.0 0.0 0.00 0.00 0.00 33 1014.5
20260508043604 21 0 0.0 0.0 0.00 0.00 0.00 34 1014.2
20260508042704 21 0 0.0 0.0 0.00 0.00 0.00 35 1014.3
20260508041804 21 0 0.0 0.0 0.00 0.00 0.00 34 1014.3
20260508040903 21 0 0.0 0.0 0.00 0.00 0.00 33 1014.2
20260508040004 20 0 0.0 0.0 0.00 0.00 0.00 34 1014.6
20260508035404 20 0 0.0 0.0 0.00 0.00 0.00 31 1014.4
20260508034504 20 0 0.0 0.0 0.00 0.00 0.00 34 1014.6
20260508033603 20 0 0.0 0.0 0.00 0.00 0.00 34 1014.8
20260508032703 20 0 0.0 0.0 0.00 0.00 0.00 34 1015.0
20260508031804 20 0 0.0 0.0 0.00 0.00 0.00 33 1015.3
20260508030904 20 0 0.0 0.0 0.00 0.00 0.00 36 1015.2
20260508030024 20 0 0.0 0.0 0.00 0.00 0.00 37 1015.0
20260508025403 20 31 0.0 1.6 0.00 0.00 0.00 39 1015.2
20260508024504 20 0 0.0 0.0 0.00 0.00 0.00 39 1015.1